Powrót do katalogu

STARLINK-34552

AktywnyŁącznośćVLEO
NORAD 64731·PAYLOAD·🇺🇸 United States

Wystrzelony Jul 2, 2025 z Cape Canaveral Space Force Station

Loading…

Następne Przeloty (najbliższe 24 godziny)

TLE

ŚwieżeSource: CelesTrak SupGP

Epoka: Sep 14, 2026, 21:42 UTC

1 64731C 25144H   26257.90465278  .00009462  00000+0  27965-3 0  2579
2 64731  53.1601  20.0886 0001222  82.9731 171.0277 15.34374544    16

Śledź STARLINK-34552 w czasie rzeczywistym z AllMySat

Download on the App Store